Regional Weather Roundup
Issued by NWS Kansas City/Pleasant Hill, MO

Home | Current Version | Previous Version | Text Only | Print | Product List | Glossary On
Versions: 1 2 3 4 5 6 7 8 9 10 11 12 13 14 15 16 17 18 19 20 21 22 23 24 25 26 27 28 29 30 31 32 33 34 35 36 37 38 39 40 41 42 43 44 45 46 47 48 49 50
000
ASUS43 KEAX 270310
RWREAX

WEATHER ROUNDUP FOR EASTERN KANSAS AND NORTHWEST MISSOURI
NATIONAL WEATHER SERVICE KANSAS CITY/PLEASANT HILL MO
1000 PM CDT TUE MAY 26 2015

KSZ040-057-103>105-MOZ028-029-037-043-270400-
...KANSAS CITY METROPOLITAN AREA...

CITY           SKY/WX    TMP DP  RH WIND       PRES   REMARKS
K.C. INTL      PTCLDY    67  60  78 W5        29.92R
K.C. DOWNTOWN  MOCLDY    73  59  61 W5        29.91R
LEES SUMMIT    CLOUDY    72  58  61 S6        29.93R
OLATHE - IXD   CLOUDY    71  60  68 SW8       29.94R
OLATHE - OJC   CLOUDY    71  61  70 SW6       29.93R
LAWRENCE       MOCLDY    65  61  87 N3        29.92R

$$

MOZ001>008-011>017-020>025-030>033-038>040-044>046-053-054-270400-
...NORTHERN AND CENTRAL MISSOURI...

CITY           SKY/WX    TMP DP  RH WIND       PRES   REMARKS
ST. JOSEPH     PTCLDY    65  59  81 N8        29.91R
MOSBY          PTCLDY    68  59  73 CALM      29.91R
WARRENSBURG    CLOUDY    68  63  83 S5        29.93S
WHITEMAN AFB   CLOUDY    70  63  79 SW6       29.93R
CLINTON        MOCLDY    70  64  83 S5        29.96R
SEDALIA        PTCLDY    70  61  73 S8        29.95R
WARSAW         NOT AVBL
CHILLICOTHE      N/A     67  62  84 CALM      29.92R
KIRKSVILLE     MOCLDY    65  62  90 SW5       29.91R

$$

MOZ041-047>049-056>058-063>065-088>090-097-270400-
...EASTERN AND SOUTHERN MISSOURI...

CITY           SKY/WX    TMP DP  RH WIND       PRES   REMARKS
ST. LOUIS INTL PTCLDY    74  60  61 S9        29.96R
SPIRIT OF STL  CLEAR    N/A N/A N/A S9        29.95R
COLUMBIA       CLEAR     67  61  81 S8        29.95R
JEFFERSON CITY CLEAR     72  60  66 S5        29.95R
ROLLA          CLEAR     68  61  78 S9        29.98R
OSAGE BEACH    PTCLDY    70  61  73 S6        29.98R
SPRINGFIELD    CLOUDY    69  62  78 S6        30.00R
BRANSON        CLEAR     68  59  73 CALM      30.03R
JOPLIN         PTCLDY    68  63  84 NW5       30.00R
WEST PLAINS    PTCLDY    69  61  75 S7        30.05R

$$

IAZ060-094-KSZ022-034>040-054-083-096-NEZ052-066-093-270400-
...KANSAS...SOUTHEAST NEBRASKA AND IOWA...

CITY           SKY/WX    TMP DP  RH WIND       PRES   REMARKS
TOPEKA         PTCLDY    68  60  75 CALM      29.93R
MANHATTAN      MOCLDY    63  58  83 CALM      29.95R
EMPORIA        MOCLDY    63  58  83 S8        29.96R
CHANUTE        CLOUDY    70  65  84 SW10      29.97R
WICHITA        MOCLDY    68  62  81 SE9       29.97R
OMAHA          MOCLDY    61  56  83 CALM      29.87R
LINCOLN        CLEAR     64  55  72 W5        29.92R
FALLS CITY     PTCLDY    63  58  83 W6        29.91R
LAMONI         CLEAR     63  59  87 W5        29.90R
DES MOINES     MOCLDY    63  59  87 W7        29.85R

$$



USA.gov is the U.S. government's official web portal to all federal, state and local government web resources and services.